This is the latest recevied weather packets stored in our database for station/object WB4ROX. If no packets are shown the sender has not sent any weather packets the latest 1 day(s).
| Time | Temp. | Humidity | Pressure | Rain* | Wind** | Luminosity | Snow |
|---|---|---|---|---|---|---|---|
| 1778037161 | 11.67° C | 64% | 1017.3 hPa | 0 mm | 2.68 m/s, 113° | 0 W/m² | - |
| 1778036859 | 11.67° C | 64% | 1017.6 hPa | 0 mm | 0.89 m/s, 264° | 0 W/m² | - |
| 1778036556 | 11.67° C | 64% | 1017.3 hPa | 0 mm | 0.89 m/s, 96° | 0 W/m² | - |
| 1778036253 | 11.67° C | 64% | 1017.5 hPa | 0 mm | 0.45 m/s, 308° | 0 W/m² | - |
| 1778035950 | 12.22° C | 63% | 1017.3 hPa | 0 mm | 1.79 m/s, 293° | 0 W/m² | - |
| 1778035646 | 12.22° C | 63% | 1017.3 hPa | 0 mm | 0.89 m/s, 28° | 0 W/m² | - |
| 1778035343 | 12.22° C | 62% | 1017 hPa | 0 mm | 0.89 m/s, 95° | 0 W/m² | - |
| 1778035039 | 12.22° C | 62% | 1017.3 hPa | 0 mm | 2.68 m/s, 290° | 0 W/m² | - |
| 1778034737 | 12.22° C | 62% | 1017.4 hPa | 0 mm | 0.45 m/s, 85° | 0 W/m² | - |
| 1778034433 | 12.22° C | 61% | 1017.3 hPa | 0 mm | 0.89 m/s, 42° | 0 W/m² | - |
| 1778034131 | 12.22° C | 61% | 1017.6 hPa | 0 mm | 0.45 m/s, 97° | 0 W/m² | - |
| 1778033829 | 12.22° C | 61% | 1017.4 hPa | 0 mm | 2.24 m/s, 49° | 0 W/m² | - |
| 1778033526 | 12.22° C | 62% | 1017.4 hPa | 0 mm | 0.45 m/s, 6° | 0 W/m² | - |
| 1778033223 | 12.22° C | 62% | 1017.5 hPa | 0 mm | 0 m/s | 0 W/m² | - |
| 1778032921 | 12.22° C | 62% | 1017.6 hPa | 0 mm | 0.89 m/s, 45° | 0 W/m² | - |
| 1778032618 | 12.22° C | 62% | 1017.4 hPa | 0 mm | 1.79 m/s, 301° | 0 W/m² | - |
| 1778032315 | 12.22° C | 62% | 1017.5 hPa | 0 mm | 0.89 m/s, 16° | 0 W/m² | - |
| 1778032012 | 12.22° C | 62% | 1017.4 hPa | 0 mm | 0.45 m/s, 92° | 0 W/m² | - |
| 1778031708 | 12.22° C | 62% | 1017.4 hPa | 0 mm | 0.45 m/s, 20° | 0 W/m² | - |
| 1778031406 | 12.22° C | 62% | 1017.3 hPa | 0 mm | 0.89 m/s, 57° | 0 W/m² | - |
| 1778031103 | 12.22° C | 62% | 1017.5 hPa | 0 mm | 1.79 m/s, 173° | 0 W/m² | - |
| 1778030799 | 12.22° C | 62% | 1017.5 hPa | 0 mm | 0.89 m/s, 95° | 0 W/m² | - |
| 1778030496 | 12.22° C | 62% | 1017.3 hPa | 0 mm | 1.34 m/s, 106° | 0 W/m² | - |
| 1778030193 | 12.22° C | 62% | 1017.4 hPa | 0 mm | 0.89 m/s, 54° | 0 W/m² | - |
| 1778029889 | 12.22° C | 61% | 1017.5 hPa | 0 mm | 1.79 m/s, 273° | 0 W/m² | - |
* Rain latest hour (hover to see other rain measurements)
** Current wind speed in m/s (hover to see current wind gust speed)